Location: Aragnouet
(42.7874°N, 0.2165°E)
Time: 12:25:43
(UTC+00:00)

SL-4 R/B - Pass Details

Date: 09 April 2020
Orbit: 428 x 666 km, 51.6° (Epoch: 26 May)

Event Time Altitude Azimuth Distance (km) Brightness Sun altitude
Rises 20:40:40 0° 289° (WNW) 2,392 6.6 -21.9°
Reaches altitude 10° 20:43:11 10° 308° (NW) 1,528 5.4 -22.3°
Maximum altitude 20:45:43 19° 356° (N) 1,105 4.0 -22.7°
Enters shadow 20:46:58 16° 24° (NNE) 1,234 3.9 -22.8°
